Location: Deuil
(48.9767°N, 2.3272°E)
Time: 03:02:33
(UTC+00:00)

Cosmos 2360 Rocket - Pass Details

Date: 29 May 2022
Orbit: 832 x 846 km, 71.0° (Epoch: 03 July)

Event Time Altitude Azimuth Distance (km) Brightness Sun altitude
Exits shadow 20:52:02 11° 146° (SE) 2,353 3.8 -9.2°
Maximum altitude 20:55:48 21° 101° (E) 1,792 3.5 -9.6°
Drops below altitude 10° 20:59:55 10° 54° (NE) 2,464 4.6 -10.0°
Sets 21:02:54 0° 39° (NE) 3,407 5.5 -10.3°
